W1MWS-13 Weather Reports


Display with metric or nautical units.
time (UTC)temp
F
wind
direction
speed
MPH
gust
MPH
rain 1hr
in
rain 24hr
in
rain mn
in
humidity
%
barometer
mb
20220626121025 77 0.0 0.0 0.00 0.00 0.00 77 1019.2
20220626120520 77 0.0 0.0 0.00 0.00 0.00 79 1019.2
20220626120017 76 124 2.0 2.0 0.00 0.00 0.00 79 1019.3
20220626115531 76 180 2.0 2.0 0.00 0.00 0.00 78 1019.3
20220626115021 76 0.0 0.0 0.00 0.00 0.00 79 1019.3
20220626114529 75 135 1.0 2.0 0.00 0.00 0.00 81 1019.4
20220626114020 75 225 1.0 2.0 0.00 0.00 0.00 86 1019.4
20220626113518 73 0.0 0.0 0.00 0.00 0.00 93 1019.3
20220626113023 71 0.0 0.0 0.00 0.00 0.00 89 1019.3
20220626112518 69 0.0 0.0 0.00 0.00 0.00 97 1019.3
20220626112026 68 0.0 0.0 0.00 0.00 0.00 99 1019.4
20220626111530 67 0.0 0.0 0.00 0.00 0.00 99 1019.4
20220626111033 67 0.0 0.0 0.00 0.00 0.00 99 1019.4
20220626110524 66 0.0 0.0 0.00 0.00 0.00 99 1019.4
20220626110022 66 0.0 0.0 0.00 0.00 0.00 99 1019.4
20220626105530 66 203 1.0 2.0 0.00 0.00 0.00 99 1019.4
20220626105020 65 0.0 0.0 0.00 0.00 0.00 99 1019.4
20220626104529 65 0.0 0.0 0.00 0.00 0.00 99 1019.4
20220626104019 64 0.0 0.0 0.00 0.00 0.00 99 1019.4
20220626103521 64 0.0 0.0 0.00 0.00 0.00 99 1019.6
20220626103019 64 0.0 0.0 0.00 0.00 0.00 99 1019.6
20220626102524 64 0.0 0.0 0.00 0.00 0.00 99 1019.6
20220626102029 64 0.0 0.0 0.00 0.00 0.00 99 1019.4
20220626101532 64 0.0 0.0 0.00 0.00 0.00 99 1019.4
20220626101022 64 0.0 0.0 0.00 0.00 0.00 99 1019.4
20220626100530 64 0.0 0.0 0.00 0.00 0.00 99 1019.4
20220626100023 64 0.0 0.0 0.00 0.00 0.00 99 1019.4
20220626095525 64 0.0 0.0 0.00 0.00 0.00 99 1019.3
20220626095025 64 0.0 0.0 0.00 0.00 0.00 99 1019.3
20220626094523 64 0.0 0.0 0.00 0.00 0.00 99 1019.2
20220626094021 64 0.0 0.0 0.00 0.00 0.00 99 1019.2
20220626093525 64 0.0 0.0 0.00 0.00 0.00 99 1019.2
20220626093033 64 0.0 0.0 0.00 0.00 0.00 99 1019.2
20220626092523 64 0.0 0.0 0.00 0.00 0.00 99 1019.2
20220626092031 64 0.0 0.0 0.00 0.00 0.00 99 1018.9
20220626091521 64 0.0 0.0 0.00 0.00 0.00 99 1018.9
20220626091029 64 0.0 0.0 0.00 0.00 0.00 99 1018.9
20220626090528 64 0.0 0.0 0.00 0.00 0.00 99 1018.9
20220626090024 64 0.0 0.0 0.00 0.00 0.00 99 1018.9
20220626085519 64 0.0 0.0 0.00 0.00 0.00 99 1018.9
20220626085017 64 0.0 0.0 0.00 0.00 0.00 99 1018.9
20220626084521 64 0.0 0.0 0.00 0.00 0.00 99 1018.8
20220626084028 64 0.0 0.0 0.00 0.00 0.00 99 1018.8
20220626083518 65 0.0 0.0 0.00 0.00 0.00 99 1018.7
20220626083027 65 0.0 0.0 0.00 0.00 0.00 99 1018.7
20220626082531 65 0.0 0.0 0.00 0.00 0.00 99 1018.7
20220626082023 65 0.0 0.0 0.00 0.00 0.00 98 1018.4
20220626081522 65 0.0 0.0 0.00 0.00 0.00 98 1018.4
20220626081018 65 0.0 0.0 0.00 0.00 0.00 98 1018.4
20220626080533 65 0.0 0.0 0.00 0.00 0.00 98 1018.4
20220626080018 65 0.0 0.0 0.00 0.00 0.00 98 1018.4
20220626075526 65 0.0 0.0 0.00 0.00 0.00 98 1018.4
20220626075017 66 0.0 0.0 0.00 0.00 0.00 98 1018.4
20220626074525 66 0.0 0.0 0.00 0.00 0.00 97 1018.4
20220626074015 66 0.0 0.0 0.00 0.00 0.00 97 1018.4
20220626073524 66 0.0 0.0 0.00 0.00 0.00 95 1018.4
20220626073020 66 0.0 0.0 0.00 0.00 0.00 94 1018.4
20220626072528 66 0.0 0.0 0.00 0.00 0.00 94 1018.4
20220626072018 66 0.0 0.0 0.00 0.00 0.00 94 1018.4
20220626071528 66 0.0 0.0 0.00 0.00 0.00 93 1018.4
20220626071032 66 0.0 0.0 0.00 0.00 0.00 95
20220626070517 66 0.0 0.0 0.00 0.00 0.00 95 1018.7
20220626070023 66 0.0 0.0 0.00 0.00 0.00 94 1018.7
20220626065521 67 0.0 0.0 0.00 0.00 0.00 94 1018.7
20220626065024 67 0.0 0.0 0.00 0.00 0.00 93 1018.7
20220626064525 67 0.0 0.0 0.00 0.00 0.00 93 1018.9
20220626064028 67 0.0 0.0 0.00 0.00 0.00 93 1018.9
20220626063526 67 0.0 0.0 0.00 0.00 0.00 92 1018.9
20220626063017 67 0.0 0.0 0.00 0.00 0.00 92 1018.9
20220626062526 67 0.0 0.0 0.00 0.00 0.00 91 1018.9
20220626062016 68 0.0 0.0 0.00 0.00 0.00 90 1019.1
20220626061524 68 0.0 0.0 0.00 0.00 0.00 90 1019.1
20220626061024 68 0.0 0.0 0.00 0.00 0.00 90 1019.1
20220626060518 68 0.0 0.0 0.00 0.00 0.00 88 1019.1
20220626060021 68 0.0 0.0 0.00 0.00 0.00 88 1019.1
20220626055518 68 0.0 0.0 0.00 0.00 0.00 88 1019.1
20220626055015 69 0.0 0.0 0.00 0.00 0.00 87 1019.1
20220626054531 69 0.0 0.0 0.00 0.00 0.00 85 1019.1
20220626054020 69 0.0 0.0 0.00 0.00 0.00 84 1019.1
20220626053529 69 0.0 0.0 0.00 0.00 0.00 84 1018.9
20220626053020 69 0.0 0.0 0.00 0.00 0.00 85 1018.9
20220626052528 70 0.0 0.0 0.00 0.00 0.00 85 1018.9
20220626052033 70 0.0 0.0 0.00 0.00 0.00 84 1019.1
20220626051526 70 0.0 0.0 0.00 0.00 0.00 84 1019.1
20220626051026 70 0.0 0.0 0.00 0.00 0.00 83 1018.9
20220626050526 70 0.0 0.0 0.00 0.00 0.00 82 1018.9
20220626050017 71 180 2.0 2.0 0.00 0.00 0.00 82 1018.9
20220626045525 71 0.0 0.0 0.00 0.00 0.00 81 1018.7
20220626045015 71 0.0 0.0 0.00 0.00 0.00 80 1018.7
20220626044524 71 0.0 0.0 0.00 0.00 0.00 79 1018.8
20220626044025 72 0.0 0.0 0.00 0.00 0.00 79 1018.8
20220626043522 72 1.0 2.0 0.00 0.00 0.00 79 1018.7
20220626043019 72 68 1.0 2.0 0.00 0.00 0.00 78 1018.7
20220626042515 72 0.0 0.0 0.00 0.00 0.00 78 1018.7
20220626042030 72 113 1.0 2.0 0.00 0.00 0.00 78 1018.7
20220626041520 72 0.0 0.0 0.00 0.00 0.00 77 1018.7
20220626041028 72 113 0.0 1.0 0.00 0.00 0.00 77 1018.6
20220626040519 72 0.0 0.0 0.00 0.00 0.00 76 1018.6
20220626040022 73 0.0 0.0 0.00 0.00 0.00 76 1018.6
20220626035525 73 45 1.0 2.0 0.00 0.00 0.00 76 1018.7
20220626035027 73 0.0 1.0 0.00 0.00 0.00 75 1018.7
20220626034534 73 113 2.0 2.0 0.00 0.00 0.00 75 1018.8
20220626034017 73 0.0 0.0 0.00 0.00 0.00 74 1018.8
20220626033520 73 0.0 0.0 0.00 0.00 0.00 74 1018.9
20220626033028 73 0.0 0.0 0.00 0.00 0.00 73 1018.9
20220626032518 73 0.0 0.0 0.00 0.00 0.00 73 1018.9
20220626032017 73 0.0 0.0 0.00 0.00 0.00 72 1018.8
20220626031519 73 0.0 0.0 0.00 0.00 0.00 72 1018.8
20220626031025 74 0.0 0.0 0.00 0.00 0.00 71 1018.7
20220626030516 73 338 2.0 2.0 0.00 0.00 0.00 71 1018.7
20220626030018 74 0.0 0.0 0.00 0.00 0.00 70 1018.8
20220626025518 74 0.0 0.0 0.00 0.00 0.00 68 1018.8
20220626025018 74 0.0 0.0 0.00 0.00 0.00 68 1018.8
20220626024521 74 0.0 0.0 0.00 0.00 0.00 68 1018.7
20220626024024 74 0.0 0.0 0.00 0.00 0.00 67 1018.7
20220626023532 74 148 1.0 2.0 0.00 0.00 0.00 66 1018.7
20220626023022 75 0.0 0.0 0.00 0.00 0.00 65 1018.7
20220626022531 75 0.0 0.0 0.00 0.00 0.00 65 1018.7
20220626022021 75 0.0 0.0 0.00 0.00 0.00 65 1018.8
20220626021530 75 0.0 0.0 0.00 0.00 0.00 65 1018.8
20220626021020 75 0.0 0.0 0.00 0.00 0.00 65 1018.8
20220626020529 76 0.0 0.0 0.00 0.00 0.00 64 1018.8
20220626020027 76 0.0 0.0 0.00 0.00 0.00 63 1018.8
20220626015527 76 0.0 0.0 0.00 0.00 0.00 62 1018.7
20220626015015 77 0.0 0.0 0.00 0.00 0.00 61 1018.7
20220626014519 77 0.0 0.0 0.00 0.00 0.00 61 1018.6
20220626014028 77 0.0 0.0 0.00 0.00 0.00 61 1018.6
20220626013528 78 0.0 0.0 0.00 0.00 0.00 59 1018.4
20220626013018 78 0.0 0.0 0.00 0.00 0.00 58 1018.4
20220626012521 78 0.0 1.0 0.00 0.00 0.00 58 1018.4
20220626012017 79 325 1.0 2.0 0.00 0.00 0.00 58 1018.3
20220626011519 79 0.0 0.0 0.00 0.00 0.00 57 1018.3
20220626011017 79 338 1.0 2.0 0.00 0.00 0.00 56 1018.2
20220626010516 80 0.0 0.0 0.00 0.00 0.00 56 1018.2
20220626010034 80 68 2.0 2.0 0.00 0.00 0.00 56 1017.9
20220626005522 80 3.0 4.0 0.00 0.00 0.00 56 1017.9
20220626005031 81 23 1.0 2.0 0.00 0.00 0.00 56 1017.9
20220626004521 81 0 2.0 3.0 0.00 0.00 0.00 55 1017.9
20220626004029 81 0 1.0 2.0 0.00 0.00 0.00 55 1017.9
20220626003533 82 0.0 2.0 0.00 0.00 0.00 54 1017.9
20220626003022 83 0.0 0.0 0.00 0.00 0.00 54 1017.9
20220626002533 83 33 2.0 3.0 0.00 0.00 0.00 53 1017.9
20220626002025 84 23 3.0 5.0 0.00 0.00 0.00 52 1017.8
20220626001515 84 45 4.0 5.0 0.00 0.00 0.00 52 1017.8
20220626001024 85 23 3.0 4.0 0.00 0.00 0.00 52 1017.8
20220626000532 84 45 2.0 2.0 0.00 0.00 0.00 53 1017.8
20220626000023 85 23 3.0 4.0 0.00 0.00 0.00 53 1017.8
20220625235527 85 23 3.0 4.0 0.00 0.00 0.00 53 1017.8
20220625235020 86 334 4.0 4.0 0.00 0.00 0.00 52 1017.8
20220625234516 0 338 2.0 2.0 0.00 0.00 0.00 1017.7
20220625234030 87 23 2.0 3.0 0.00 0.00 0.00 51 1017.7
20220625233515 88 37 2.0 2.0 0.00 0.00 0.00 48 1017.8
20220625233018 88 48 2.0 2.0 0.00 0.00 0.00 47 1017.8
20220625232526 89 315 1.0 2.0 0.00 0.00 0.00 47 1017.8
20220625232016 89 0 1.0 1.0 0.00 0.00 0.00 48 1017.8
20220625231525 89 23 2.0 2.0 0.00 0.00 0.00 46 1017.8
20220625231015 89 8 2.0 2.0 0.00 0.00 0.00 45 1017.7
20220625230524 90 338 3.0 3.0 0.00 0.00 0.00 45 1017.7
20220625230032 90 0 3.0 3.0 0.00 0.00 0.00 45 1017.7
20220625225522 90 32 3.0 3.0 0.00 0.00 0.00 45 1017.6
20220625225030 90 10 2.0 3.0 0.00 0.00 0.00 44 1017.6
20220625224520 90 338 2.0 2.0 0.00 0.00 0.00 44 1017.6
20220625224029 90 0.0 0.0 0.00 0.00 0.00 45 1017.6
20220625223519 91 23 3.0 4.0 0.00 0.00 0.00 44 1017.6
20220625223024 91 0.0 1.0 0.00 0.00 0.00 44 1017.6
20220625222518 91 113 2.0 2.0 0.00 0.00 0.00 44 1017.6
20220625222017 92 0.0 0.0 0.00 0.00 0.00 44 1017.7
20220625221532 92 0.0 1.0 0.00 0.00 0.00 42 1017.7
20220625221022 91 0.0 0.0 0.00 0.00 0.00 42 1017.7
20220625220525 91 225 0.0 1.0 0.00 0.00 0.00 43 1017.7
20220625220029 92 338 1.0 2.0 0.00 0.00 0.00 42 1017.7
20220625215535 92 338 3.0 4.0 0.00 0.00 0.00 42 1017.7
20220625215022 92 113 3.0 4.0 0.00 0.00 0.00 42 1017.7
20220625214520 92 248 2.0 3.0 0.00 0.00 0.00 42 1017.6
20220625214020 92 23 2.0 2.0 0.00 0.00 0.00 42 1017.6
20220625213532 93 23 2.0 3.0 0.00 0.00 0.00 40 1017.7
20220625213028 92 90 2.0 2.0 0.00 0.00 0.00 42 1017.7
20220625212516 92 79 1.0 1.0 0.00 0.00 0.00 42 1017.7
20220625212019 92 79 2.0 3.0 0.00 0.00 0.00 41 1017.6
20220625211528 93 182 3.0 3.0 0.00 0.00 0.00 41 1017.6
20220625211032 93 248 1.0 2.0 0.00 0.00 0.00 42 1017.6
20220625210530 93 0 1.0 2.0 0.00 0.00 0.00 41 1017.6
20220625210023 91 0.0 0.0 0.00 0.00 0.00 43 1017.6
20220625205530 92 180 2.0 2.0 0.00 0.00 0.00 44 1017.6
20220625205019 92 191 3.0 3.0 0.00 0.00 0.00 43 1017.6
20220625204522 93 270 3.0 3.0 0.00 0.00 0.00 42 1017.7
20220625204019 92 199 2.0 4.0 0.00 0.00 0.00 42 1017.7
20220625203527 91 180 4.0 7.0 0.00 0.00 0.00 42 1017.6
20220625203025 90 135 5.0 5.0 0.00 0.00 0.00 42 1017.6
20220625202524 91 158 5.0 6.0 0.00 0.00 0.00 41 1017.6
20220625202031 92 113 3.0 3.0 0.00 0.00 0.00 42 1017.4
20220625201521 91 4.0 5.0 0.00 0.00 0.00 42 1017.4
20220625201020 91 3.0 3.0 0.00 0.00 0.00 42 1017.2
20220625200529 92 180 3.0 4.0 0.00 0.00 0.00 42 1017.2
20220625200027 0 166 4.0 5.0 0.00 0.00 0.00 1017.2
20220625195532 93 158 2.0 2.0 0.00 0.00 0.00 43 1017.4
20220625195017 92 224 2.0 4.0 0.00 0.00 0.00 41 1017.4
20220625194520 92 203 3.0 3.0 0.00 0.00 0.00 42 1017.6
20220625194028 92 180 5.0 6.0 0.00 0.00 0.00 42 1017.6
20220625193519 91 211 2.0 3.0 0.00 0.00 0.00 43 1017.7
20220625193027 93 0 3.0 3.0 0.00 0.00 0.00 41 1017.7
20220625192517 90 167 4.0 4.0 0.00 0.00 0.00 42 1017.7
20220625192020 92 106 3.0 4.0 0.00 0.00 0.00 43 1017.8
20220625191518 92 135 3.0 3.0 0.00 0.00 0.00 44 1017.8
20220625191033 90 168 6.0 6.0 0.00 0.00 0.00 43 1017.9
20220625190524 91 158 4.0 5.0 0.00 0.00 0.00 43 1017.9
20220625190032 92 215 4.0 5.0 0.00 0.00 0.00 43 1018.2
20220625185530 92 203 4.0 6.0 0.00 0.00 0.00 42 1018.2
20220625185034 92 212 4.0 5.0 0.00 0.00 0.00 42
20220625184517 92 194 2.0 3.0 0.00 0.00 0.00 45 1018.3
20220625184033 92 192 2.0 3.0 0.00 0.00 0.00 45 1018.3
20220625183523 94 158 2.0 3.0 0.00 0.00 0.00 43 1018.3
20220625183032 93 0.0 0.0 0.00 0.00 0.00 45 1018.3
20220625182522 92 203 3.0 4.0 0.00 0.00 0.00 45 1018.3
20220625182025 91 3.0 4.0 0.00 0.00 0.00 46 1018.4
20220625181515 92 158 1.0 2.0 0.00 0.00 0.00 46 1018.4
20220625181018 92 1.0 1.0 0.00 0.00 0.00 44 1018.6
20220625180522 91 158 2.0 3.0 0.00 0.00 0.00 46 1018.6
20220625180030 92 311 2.0 3.0 0.00 0.00 0.00 43 1018.6
20220625175525 90 225 4.0 5.0 0.00 0.00 0.00 46 1018.7
20220625175022 89 240 2.0 2.0 0.00 0.00 0.00 47 1018.7
20220625174518 91 192 3.0 3.0 0.00 0.00 0.00 46 1018.7
20220625174028 89 166 3.0 4.0 0.00 0.00 0.00 46 1018.7
20220625173517 90 270 2.0 2.0 0.00 0.00 0.00 47 1018.7
20220625173020 90 203 4.0 4.0 0.00 0.00 0.00 46 1018.7
20220625172528 89 1.0 2.0 0.00 0.00 0.00 47 1018.7
20220625172019 89 203 5.0 5.0 0.00 0.00 0.00 47 1018.8
20220625171521 89 180 3.0 4.0 0.00 0.00 0.00 48 1018.8
20220625171029 89 245 3.0 3.0 0.00 0.00 0.00 46 1018.9
20220625170533 90 193 4.0 5.0 0.00 0.00 0.00 45 1018.9
20220625170025 90 225 5.0 5.0 0.00 0.00 0.00 46 1018.9
20220625165529 89 203 3.0 4.0 0.00 0.00 0.00 46 1018.9
20220625165019 90 302 1.0 2.0 0.00 0.00 0.00 45 1018.9
20220625164527 88 158 4.0 5.0 0.00 0.00 0.00 47 1018.9
20220625164018 88 192 5.0 6.0 0.00 0.00 0.00 46 1018.9
20220625163535 89 158 3.0 4.0 0.00 0.00 0.00 46 1018.9
20220625163022 88 167 3.0 4.0 0.00 0.00 0.00 46 1018.9
20220625162524 89 176 3.0 4.0 0.00 0.00 0.00 46 1018.9
20220625162020 92 158 4.0 5.0 0.00 0.00 0.00 43 1019.1
20220625161516 91 0 3.0 3.0 0.00 0.00 0.00 44 1019.1
20220625161031 88 203 5.0 5.0 0.00 0.00 0.00 46 1019.1
20220625160521 88 180 5.0 5.0 0.00 0.00 0.00 46 1019.1
20220625160030 92 203 3.0 3.0 0.00 0.00 0.00 44 1019.1
20220625155528 93 240 3.0 3.0 0.00 0.00 0.00 42 1019.1
20220625155025 92 139 3.0 3.0 0.00 0.00 0.00 42
20220625154516 91 225 2.0 3.0 0.00 0.00 0.00 44 1018.9
20220625154024 90 101 2.0 2.0 0.00 0.00 0.00 45 1018.9
20220625153532 89 203 4.0 5.0 0.00 0.00 0.00 44 1018.9
20220625153018 91 225 3.0 4.0 0.00 0.00 0.00 44 1018.9
20220625152521 90 270 3.0 3.0 0.00 0.00 0.00 45 1018.9
20220625152020 87 158 4.0 5.0 0.00 0.00 0.00 46 1018.7
20220625151527 92 158 3.0 4.0 0.00 0.00 0.00 42 1018.7
20220625151017 91 210 2.0 2.0 0.00 0.00 0.00 42 1018.8
20220625150525 89 214 3.0 3.0 0.00 0.00 0.00 43 1018.8
20220625150015 90 220 3.0 4.0 0.00 0.00 0.00 43 1018.8
20220625145524 89 225 2.0 2.0 0.00 0.00 0.00 43 1018.7
20220625145020 87 214 3.0 3.0 0.00 0.00 0.00 47 1018.7
20220625144517 86 180 4.0 4.0 0.00 0.00 0.00 48 1018.8
20220625144025 88 180 3.0 4.0 0.00 0.00 0.00 47 1018.8
20220625143516 87 221 3.0 4.0 0.00 0.00 0.00 48 1018.9
20220625143024 88 225 3.0 3.0 0.00 0.00 0.00 46 1018.9
20220625142515 88 225 2.0 2.0 0.00 0.00 0.00 46 1018.9
20220625142023 0 225 2.0 2.0 0.00 0.00 0.00 1018.9
20220625141526 0 212 3.0 4.0 0.00 0.00 0.00 1018.9
20220625141024 87 230 3.0 3.0 0.00 0.00 0.00 50 1018.8
20220625140529 87 212 3.0 4.0 0.00 0.00 0.00 51 1018.8
20220625140018 86 234 3.0 4.0 0.00 0.00 0.00 52 1018.8
20220625135526 86 225 2.0 3.0 0.00 0.00 0.00 52 1018.8
20220625135017 86 225 3.0 4.0 0.00 0.00 0.00 52 1018.8
20220625134525 86 248 3.0 3.0 0.00 0.00 0.00 52 1018.8
20220625134023 84 214 3.0 3.0 0.00 0.00 0.00 53 1018.8
20220625133531 84 225 3.0 3.0 0.00 0.00 0.00 55 1018.9
20220625133022 82 225 2.0 2.0 0.00 0.00 0.00 57 1018.9
20220625132524 83 225 3.0 3.0 0.00 0.00 0.00 56 1018.9
20220625132020 83 248 3.0 3.0 0.00 0.00 0.00 56 1018.8
20220625131516 82 261 1.0 2.0 0.00 0.00 0.00 59 1018.8
20220625131018 80 225 2.0 3.0 0.00 0.00 0.00 62 1018.9
20220625130527 78 225 3.0 3.0 0.00 0.00 0.00 64 1018.9
20220625130032 75 158 4.0 4.0 0.00 0.00 0.00 68 1019.1
20220625125530 76 203 4.0 5.0 0.00 0.00 0.00 67 1019.1
20220625125019 75 180 3.0 3.0 0.00 0.00 0.00 69
20220625124527 73 180 4.0 4.0 0.00 0.00 0.00 71 1019.1
20220625124020 75 225 3.0 4.0 0.00 0.00 0.00 70 1019.1
20220625123516 74 195 3.0 3.0 0.00 0.00 0.00 72 1018.9
20220625123020 73 3.0 3.0 0.00 0.00 0.00 73 1018.9
20220625122527 72 225 1.0 1.0 0.00 0.00 0.00 75 1018.9
20220625122017 71 203 2.0 3.0 0.00 0.00 0.00 78 1018.8
20220625121529 70 158 2.0 3.0 0.00 0.00 0.00 80 1018.8